EW8780 Weather Reports


Display with metric or nautical units.
time (UTC)temp
F
wind
direction
speed
MPH
gust
MPH
rain 1hr
in
rain 24hr
in
rain mn
in
humidity
%
barometer
mb
20260903183006 61 236 1.0 3.0 0.00 1.28 0.00 94 1009.0
20260903181504 61 220 0.0 2.0 0.00 1.28 0.00 95 1009.0
20260903180004 60 218 1.0 3.0 0.00 1.28 0.00 95 1008.9
20260903174504 61 242 1.0 4.0 0.00 1.43 0.00 95 1008.9
20260903173015 61 229 1.0 3.0 0.00 1.43 0.00 95 1008.8
20260903171503 61 225 1.0 4.0 0.00 1.43 0.00 96 1008.8
20260903170002 61 236 1.0 4.0 0.00 1.43 0.00 96 1008.8
20260903164501 61 273 0.0 2.0 0.00 1.60 0.00 96 1008.9
20260903163101 60 277 0.0 1.0 0.00 1.60 0.00 96 1008.9
20260903161558 60 277 0.0 2.0 0.00 1.60 0.00 96 1009.0
20260903160058 60 278 0.0 2.0 0.00 1.60 0.00 96 1009.1
20260903154551 60 240 0.0 0.0 0.00 1.73 0.00 97 1009.3
20260903153048 59 240 0.0 0.0 0.00 1.73 0.00 96 1009.3
20260903151547 59 240 0.0 1.0 0.00 1.73 0.00 96 1009.2
20260903150054 58 244 0.0 2.0 0.00 1.73 0.00 96 1009.3
20260903144545 58 242 0.0 2.0 0.00 1.76 0.00 96 1009.2
20260903143052 58 242 1.0 4.0 0.00 1.76 0.00 96 1009.4
20260903141542 58 216 0.0 2.0 0.00 1.76 0.00 96 1009.3
20260903140041 58 205 0.0 1.0 0.00 1.76 0.00 96 1009.3
20260903134549 58 205 0.0 2.0 0.00 1.76 0.00 96 1009.1
20260903133040 58 205 0.0 0.0 0.00 1.76 0.00 96 1009.1
20260903131538 58 205 0.0 3.0 0.00 1.76 0.00 96 1009.1
20260903130039 58 204 0.0 2.0 0.00 1.76 0.00 96 1009.2
20260903124537 58 204 0.0 1.0 0.00 1.76 0.00 96 1009.1
20260903123036 58 204 0.0 0.0 0.00 1.76 0.00 96 1009.1
20260903121535 58 204 0.0 1.0 0.00 1.76 0.00 96 1009.3
20260903120035 58 204 0.0 0.0 0.00 1.76 0.00 96 1009.4
20260903114532 58 204 0.0 0.0 0.00 1.76 0.00 96 1009.5
20260903113033 58 204 0.0 2.0 0.00 1.76 0.00 96 1009.5
20260903111527 58 204 0.0 1.0 0.00 1.76 0.00 96 1009.7
20260903110026 58 160 0.0 5.0 0.00 1.76 0.00 96 1009.8
20260903104526 58 184 0.0 3.0 0.00 1.76 0.00 96 1009.9
20260903103023 58 181 0.0 1.0 0.00 1.76 0.00 96 1009.9
20260903101521 58 181 0.0 2.0 0.00 1.76 0.00 96 1010.0
20260903100020 58 181 0.0 3.0 0.00 1.76 0.00 96 1010.1
20260903094520 58 238 1.0 3.0 0.00 1.76 0.00 96 1010.1
20260903093023 58 238 0.0 1.0 0.00 1.76 0.00 96 1010.2
20260903091515 58 238 0.0 2.0 0.00 1.76 0.00 96 1010.2
20260903090015 58 238 0.0 2.0 0.00 1.76 0.00 96 1010.3
20260903084516 58 238 0.0 0.0 0.00 1.76 0.00 96 1010.4
20260903083012 58 238 0.0 1.0 0.00 1.76 0.00 96 1010.2
20260903081529 58 238 0.0 1.0 0.00 1.76 0.00 96 1010.2
20260903080009 58 238 0.0 1.0 0.00 1.76 0.00 96 1010.1
20260903074509 58 238 0.0 1.0 0.00 1.76 0.00 96 1010.2
20260903073008 58 238 0.0 4.0 0.00 1.76 0.00 96 1010.2
20260903071505 58 223 1.0 3.0 0.00 1.76 0.00 95 1010.2
20260903070003 58 257 1.0 3.0 0.00 1.76 0.00 95 1010.2
20260903064502 58 235 1.0 3.0 0.00 1.76 1.76 95 1010.1
20260903063001 58 230 0.0 2.0 0.00 1.76 1.76 95 1009.9
20260903061502 58 215 0.0 4.0 0.00 1.76 1.76 95 1010.0
20260903054659 58 223 2.0 4.0 0.00 1.76 1.76 95 1010.1
20260903053100 58 231 1.0 5.0 0.00 1.76 1.76 95 1010.2
20260903051603 58 218 1.0 3.0 0.00 1.76 1.76 95 1010.1
20260903050058 58 207 1.0 4.0 0.00 1.76 1.76 95 1010.1
20260903044558 58 232 1.0 3.0 0.00 1.76 1.76 95 1010.1
20260903043058 58 231 1.0 4.0 0.01 1.76 1.76 95 1010.0
20260903041557 58 240 2.0 4.0 0.01 1.76 1.76 95 1009.9
20260903040103 58 225 1.0 3.0 0.01 1.76 1.76 95 1009.8
20260903034556 58 227 2.0 7.0 0.01 1.76 1.76 95 1009.7
20260903033055 58 244 2.0 7.0 0.00 1.75 1.75 95 1009.6
20260903031558 58 233 3.0 7.0 0.00 1.75 1.75 95 1009.5
20260903030051 58 234 1.0 8.0 0.01 1.75 1.75 95 1009.3
20260903024550 58 244 2.0 6.0 0.03 1.75 1.75 95 1009.3
20260903023101 58 144 2.0 7.0 0.03 1.75 1.75 95 1009.2
20260903021548 58 238 2.0 8.0 0.05 1.75 1.75 95 1009.3
20260903020043 58 246 2.0 6.0 0.06 1.74 1.74 95 1009.5
20260903014542 58 192 2.0 7.0 0.06 1.72 1.72 95 1009.5
20260903013041 58 225 3.0 9.0 0.06 1.72 1.72 95 1009.6
20260903011540 58 236 2.0 5.0 0.05 1.70 1.70 95 1009.2
20260903010039 58 168 2.0 7.0 0.04 1.68 1.68 95 1009.3
20260903004539 58 208 1.0 4.0 0.03 1.66 1.66 95 1009.1
20260903003043 58 173 3.0 6.0 0.06 1.66 1.66 95 1009.2
20260903001538 58 225 4.0 12.0 0.11 1.65 1.65 95 1009.2
20260903000037 58 217 4.0 10.0 0.18 1.64 1.64 95 1009.1
20260902234540 58 227 4.0 9.0 0.20 1.62 1.62 94 1008.9
20260902233036 58 232 5.0 9.0 0.24 1.60 1.60 95 1008.8
20260902231552 58 205 3.0 11.0 0.24 1.54 1.54 95 1008.5
20260902230038 58 202 1.0 6.0 0.21 1.46 1.46 95 1008.2
20260902224533 58 238 1.0 5.0 0.25 1.42 1.42 95 1008.0
20260902223033 58 236 2.0 6.0 0.28 1.36 1.36 94 1008.0
20260902221534 58 234 1.0 7.0 0.28 1.30 1.30 94 1007.9
20260902220032 58 230 0.0 3.0 0.30 1.25 1.25 94 1007.9
20260902214526 58 238 0.0 4.0 0.26 1.15 1.15 94 1007.9
20260902213024 58 226 1.0 4.0 0.24 1.08 1.08 94 1007.9
20260902211525 58 249 0.0 2.0 0.21 1.01 1.01 94 1008.0
20260902210031 58 229 0.0 5.0 0.19 0.95 0.95 93 1008.2
20260902204522 58 270 0.0 5.0 0.19 0.89 0.89 93 1008.1
20260902203021 58 145 1.0 5.0 0.18 0.84 0.84 94 1008.1
20260902201522 58 236 1.0 5.0 0.19 0.80 0.80 93 1008.1
20260902200021 57 192 1.0 6.0 0.18 0.76 0.76 93 1008.2
20260902194524 57 234 0.0 3.0 0.14 0.70 0.70 93 1008.3
20260902193019 57 218 0.0 4.0 0.11 0.66 0.66 93 1008.5
20260902191521 57 206 2.0 8.0 0.10 0.61 0.61 93 1008.6
20260902190024 58 200 1.0 6.0 0.10 0.57 0.57 94 1008.5
20260902184517 58 189 1.0 4.0 0.11 0.56 0.56 94 1008.7